timestamp,wind_dir_avg,wind_spd_avg,wind_spd_max_dir,wind_spd_gust,battery_voltage,lat,long
2023-02-02 00:04:01+00:00,268.0,1.31,263.0,2.05,12.33,47.59359,-54.27349
2023-02-02 00:14:01+00:00,282.0,2.76,282.0,4.05,12.25,47.59359,-54.27349
2023-02-02 00:24:01+00:00,243.0,1.86,239.0,2.53,12.25,47.59359,-54.27349
2023-02-02 00:34:01+00:00,255.0,2.43,260.0,3.15,12.25,47.59359,-54.27349
2023-02-02 00:44:01+00:00,255.0,0.91,255.0,1.8,12.25,47.59359,-54.27349
2023-02-02 00:54:01+00:00,280.0,0.92,273.0,1.42,12.25,47.59359,-54.27349
2023-02-02 01:04:01+00:00,257.0,1.05,243.0,1.68,12.25,47.59359,-54.27349
2023-02-02 01:14:01+00:00,264.0,0.57,277.0,1.41,12.25,47.59359,-54.27349
2023-02-02 01:24:01+00:00,97.0,0.4,91.0,0.98,12.25,47.59359,-54.27349
2023-02-02 01:34:01+00:00,106.0,0.72,108.0,1.16,12.25,47.59359,-54.27349
2023-02-02 01:44:01+00:00,134.0,0.87,131.0,1.25,12.25,47.59359,-54.27349
2023-02-02 01:54:01+00:00,182.0,0.28,175.0,0.51,12.25,47.59359,-54.27349
2023-02-02 02:04:01+00:00,178.0,2.07,176.0,3.03,12.25,47.59359,-54.27349
2023-02-02 02:14:01+00:00,178.0,2.43,180.0,3.22,12.17,47.59359,-54.27349
2023-02-02 02:24:01+00:00,198.0,2.52,195.0,3.34,12.17,47.59359,-54.27349
2023-02-02 02:34:01+00:00,248.0,1.36,249.0,1.99,12.17,47.59359,-54.27349
2023-02-02 02:44:01+00:00,1.0,1.01,1.0,1.49,12.17,47.59359,-54.27349
2023-02-02 02:54:01+00:00,357.0,3.03,356.0,3.51,12.17,47.59359,-54.27349
2023-02-02 03:04:01+00:00,357.0,1.74,346.0,2.58,12.17,47.59359,-54.27349
2023-02-02 03:14:01+00:00,354.0,2.9,357.0,3.48,12.17,47.59359,-54.27349
2023-02-02 03:24:01+00:00,3.0,2.75,7.0,3.36,12.17,47.59359,-54.27349
2023-02-02 03:34:01+00:00,344.0,4.06,352.0,4.56,12.17,47.59359,-54.27349
2023-02-02 03:44:01+00:00,334.0,3.03,327.0,3.92,12.17,47.59359,-54.27349
2023-02-02 03:54:01+00:00,344.0,3.01,341.0,3.41,12.17,47.59359,-54.27349
2023-02-02 04:04:01+00:00,345.0,2.49,351.0,2.88,12.17,47.59359,-54.27349
2023-02-02 04:14:01+00:00,313.0,3.05,304.0,4.93,12.17,47.59359,-54.27349
2023-02-02 04:24:01+00:00,305.0,2.57,312.0,3.39,12.17,47.59359,-54.27349
2023-02-02 04:34:01+00:00,311.0,2.94,311.0,3.42,12.17,47.59359,-54.27349
2023-02-02 04:44:01+00:00,310.0,2.89,309.0,3.83,12.17,47.59359,-54.27349
2023-02-02 04:54:01+00:00,301.0,3.64,293.0,4.67,12.17,47.59359,-54.27349
2023-02-02 05:04:01+00:00,308.0,3.7,303.0,4.74,12.17,47.59359,-54.27349
2023-02-02 05:14:01+00:00,324.0,4.03,337.0,4.95,12.17,47.59359,-54.27349
2023-02-02 05:24:01+00:00,307.0,6.55,304.0,8.01,12.17,47.59359,-54.27349
2023-02-02 05:34:01+00:00,297.0,5.65,298.0,6.28,12.17,47.59359,-54.27349
2023-02-02 05:44:01+00:00,299.0,6.13,293.0,7.05,12.17,47.59359,-54.27349
2023-02-02 05:54:01+00:00,324.0,6.44,325.0,7.03,12.17,47.59359,-54.27349
2023-02-02 06:04:01+00:00,335.0,7.7,335.0,8.96,12.17,47.59359,-54.27349
2023-02-02 06:14:01+00:00,327.0,9.08,310.0,11.43,12.09,47.59359,-54.27349
2023-02-02 06:24:01+00:00,328.0,9.7,325.0,11.12,12.09,47.59359,-54.27349
2023-02-02 06:34:01+00:00,348.0,9.51,342.0,10.9,12.09,47.59359,-54.27349
2023-02-02 06:44:01+00:00,347.0,9.34,347.0,11.07,12.09,47.59359,-54.27349
2023-02-02 06:54:01+00:00,358.0,10.1,358.0,11.2,12.09,47.59359,-54.27349
2023-02-02 07:04:01+00:00,3.0,9.22,6.0,10.66,12.09,47.59359,-54.27349
2023-02-02 07:14:01+00:00,359.0,8.35,358.0,9.59,12.09,47.59359,-54.27349
2023-02-02 07:24:01+00:00,6.0,6.41,16.0,7.74,12.09,47.59359,-54.27349
2023-02-02 07:34:01+00:00,3.0,6.66,357.0,8.08,12.09,47.59359,-54.27349
2023-02-02 07:44:01+00:00,3.0,6.65,350.0,7.84,12.09,47.59359,-54.27349
2023-02-02 07:54:01+00:00,358.0,7.38,0.0,8.43,12.09,47.59359,-54.27349
2023-02-02 08:04:01+00:00,9.0,6.05,3.0,7.53,12.09,47.59359,-54.27349
2023-02-02 08:14:01+00:00,4.0,5.96,5.0,7.12,12.09,47.59359,-54.27349
2023-02-02 08:24:01+00:00,9.0,6.32,1.0,7.55,12.09,47.59359,-54.27349
2023-02-02 08:34:01+00:00,8.0,6.57,6.0,8.22,12.09,47.59359,-54.27349
2023-02-02 08:44:01+00:00,7.0,6.54,18.0,8.09,12.09,47.59359,-54.27349
2023-02-02 08:54:01+00:00,4.0,5.9,6.0,6.68,12.09,47.59359,-54.27349
2023-02-02 09:04:01+00:00,359.0,6.72,1.0,7.96,12.09,47.59359,-54.27349
2023-02-02 09:14:01+00:00,358.0,8.4,359.0,9.4,12.01,47.59359,-54.27349
2023-02-02 09:24:01+00:00,7.0,8.17,0.0,9.79,12.01,47.59359,-54.27349
2023-02-02 09:34:01+00:00,4.0,7.99,8.0,9.0,12.01,47.59359,-54.27349
2023-02-02 09:44:01+00:00,1.0,7.42,3.0,8.33,12.01,47.59359,-54.27349
2023-02-02 09:54:01+00:00,359.0,7.43,352.0,8.57,12.01,47.59359,-54.27349
2023-02-02 10:04:01+00:00,1.0,7.48,3.0,8.91,12.01,47.59359,-54.27349
2023-02-02 10:14:01+00:00,350.0,7.06,348.0,8.17,12.01,47.59359,-54.27349
2023-02-02 10:24:01+00:00,351.0,6.82,353.0,7.85,12.01,47.59359,-54.27349
2023-02-02 10:34:01+00:00,356.0,5.56,357.0,7.4,12.01,47.59359,-54.27349
2023-02-02 10:44:01+00:00,355.0,5.39,0.0,6.77,12.01,47.59359,-54.27349
2023-02-02 10:54:01+00:00,342.0,5.27,341.0,6.15,12.01,47.59359,-54.27349
2023-02-02 11:04:01+00:00,340.0,4.84,348.0,6.48,12.01,47.59359,-54.27349
2023-02-02 11:14:01+00:00,332.0,4.2,328.0,5.04,12.01,47.59359,-54.27349
2023-02-02 11:24:01+00:00,336.0,4.61,337.0,5.52,12.01,47.59359,-54.27349
2023-02-02 11:34:01+00:00,342.0,4.65,1.0,5.81,12.01,47.59359,-54.27349
2023-02-02 11:44:01+00:00,329.0,4.04,316.0,5.18,12.01,47.59359,-54.27349
2023-02-02 11:54:01+00:00,333.0,4.03,323.0,4.86,12.01,47.59359,-54.27349
2023-02-02 12:04:01+00:00,333.0,3.76,334.0,4.9,12.01,47.59359,-54.27349
2023-02-02 12:14:01+00:00,334.0,4.22,339.0,5.54,13.76,47.59359,-54.27349
2023-02-02 12:24:01+00:00,330.0,4.26,329.0,5.32,13.76,47.59359,-54.27349
2023-02-02 12:34:01+00:00,346.0,5.48,345.0,6.85,13.76,47.59359,-54.27349
2023-02-02 12:44:01+00:00,322.0,5.53,321.0,6.49,13.76,47.59359,-54.27349
2023-02-02 12:54:01+00:00,326.0,5.0,328.0,6.12,13.76,47.59359,-54.27349
2023-02-02 13:04:01+00:00,332.0,5.27,333.0,6.83,13.76,47.59359,-54.27349
2023-02-02 13:14:01+00:00,343.0,5.41,341.0,7.4,14.48,47.59359,-54.27349
2023-02-02 13:24:01+00:00,338.0,5.16,329.0,6.24,14.48,47.59359,-54.27349
2023-02-02 13:34:01+00:00,330.0,5.91,324.0,7.45,14.48,47.59359,-54.27349
2023-02-02 13:44:01+00:00,326.0,4.73,332.0,5.48,14.48,47.59359,-54.27349
2023-02-02 13:54:01+00:00,325.0,5.22,324.0,5.57,14.48,47.59359,-54.27349
2023-02-02 14:04:01+00:00,321.0,4.68,328.0,5.65,14.48,47.59359,-54.27349
2023-02-02 14:14:01+00:00,317.0,4.04,315.0,5.31,14.32,47.59359,-54.27349
2023-02-02 14:24:01+00:00,319.0,4.32,317.0,5.75,14.32,47.59359,-54.27349
2023-02-02 14:34:01+00:00,323.0,3.95,326.0,4.54,14.32,47.59359,-54.27349
2023-02-02 14:44:01+00:00,315.0,4.62,312.0,5.49,14.32,47.59359,-54.27349
2023-02-02 14:54:01+00:00,318.0,4.21,322.0,5.01,14.32,47.59359,-54.27349
2023-02-02 15:04:01+00:00,320.0,3.5,315.0,4.2,14.32,47.59359,-54.27349
2023-02-02 15:14:01+00:00,311.0,3.42,310.0,4.14,13.6,47.59359,-54.27349
2023-02-02 15:24:01+00:00,299.0,2.36,305.0,2.83,13.6,47.59359,-54.27349
2023-02-02 15:34:01+00:00,292.0,2.39,287.0,2.94,13.6,47.59359,-54.27349
2023-02-02 15:44:01+00:00,307.0,2.59,307.0,3.31,13.6,47.59359,-54.27349
2023-02-02 15:54:01+00:00,292.0,2.21,301.0,2.85,13.6,47.59359,-54.27349
2023-02-02 16:04:01+00:00,258.0,2.89,267.0,3.94,13.6,47.59359,-54.27349
2023-02-02 16:14:01+00:00,264.0,2.84,272.0,3.64,14.32,47.59359,-54.27349
2023-02-02 16:24:01+00:00,282.0,2.78,279.0,3.68,14.32,47.59359,-54.27349
2023-02-02 16:34:01+00:00,253.0,3.78,254.0,4.17,14.32,47.59359,-54.27349
2023-02-02 16:44:01+00:00,274.0,3.58,271.0,4.13,14.32,47.59359,-54.27349
2023-02-02 16:54:01+00:00,229.0,4.02,225.0,4.91,14.32,47.59359,-54.27349
2023-02-02 17:04:01+00:00,260.0,5.05,258.0,9.01,14.32,47.59359,-54.27349
2023-02-02 17:14:01+00:00,194.0,3.02,225.0,4.89,14.32,47.59359,-54.27349
2023-02-02 17:24:01+00:00,235.0,4.7,234.0,5.26,14.32,47.59359,-54.27349
2023-02-02 17:34:01+00:00,235.0,4.75,232.0,5.94,14.32,47.59359,-54.27349
2023-02-02 17:44:01+00:00,247.0,4.35,245.0,5.58,14.32,47.59359,-54.27349
2023-02-02 17:54:01+00:00,231.0,5.15,232.0,5.75,14.32,47.59359,-54.27349
2023-02-02 18:04:01+00:00,243.0,6.39,248.0,7.45,14.32,47.59359,-54.27349
2023-02-02 18:14:00+00:00,243.0,7.0,252.0,8.29,14.16,47.59359,-54.27349
2023-02-02 18:24:00+00:00,252.0,8.0,256.0,8.82,14.16,47.59359,-54.27349
2023-02-02 18:34:00+00:00,255.0,7.98,248.0,9.01,14.16,47.59359,-54.27349
2023-02-02 18:44:00+00:00,252.0,7.09,251.0,8.42,14.16,47.59359,-54.27349
2023-02-02 18:54:00+00:00,264.0,7.12,241.0,7.84,14.16,47.59359,-54.27349
2023-02-02 19:04:00+00:00,263.0,6.62,263.0,7.38,14.16,47.59359,-54.27349
2023-02-02 19:14:01+00:00,259.0,7.82,266.0,8.8,14.4,47.59359,-54.27349
2023-02-02 19:24:01+00:00,264.0,7.14,267.0,8.11,14.4,47.59359,-54.27349
2023-02-02 19:34:01+00:00,242.0,7.4,247.0,8.73,14.4,47.59359,-54.27349
2023-02-02 19:44:01+00:00,251.0,7.88,256.0,9.21,14.4,47.59359,-54.27349
2023-02-02 19:54:01+00:00,245.0,6.59,241.0,7.78,14.4,47.59359,-54.27349
2023-02-02 20:04:01+00:00,235.0,7.32,237.0,8.39,14.4,47.59359,-54.27349
2023-02-02 20:14:00+00:00,260.0,7.21,261.0,8.25,13.37,47.59359,-54.27349
2023-02-02 20:24:00+00:00,250.0,7.39,249.0,8.72,13.37,47.59359,-54.27349
2023-02-02 20:34:00+00:00,226.0,7.88,229.0,9.1,13.37,47.59359,-54.27349
2023-02-02 20:44:00+00:00,223.0,6.01,215.0,7.64,13.37,47.59359,-54.27349
2023-02-02 20:54:00+00:00,228.0,6.65,228.0,8.16,13.37,47.59359,-54.27349
2023-02-02 21:04:00+00:00,223.0,6.18,231.0,7.6,13.37,47.59359,-54.27349
2023-02-02 21:14:00+00:00,233.0,9.07,237.0,10.41,12.57,47.59359,-54.27349
2023-02-02 21:24:00+00:00,221.0,7.7,224.0,9.64,12.57,47.59359,-54.27349
2023-02-02 21:34:00+00:00,232.0,7.18,233.0,9.45,12.57,47.59359,-54.27349
2023-02-02 21:44:00+00:00,238.0,7.96,241.0,11.17,12.57,47.59359,-54.27349
2023-02-02 21:54:00+00:00,242.0,9.93,236.0,11.61,12.57,47.59359,-54.27349
2023-02-02 22:04:00+00:00,244.0,9.13,246.0,10.43,12.57,47.59359,-54.27349
2023-02-02 22:14:00+00:00,243.0,11.28,239.0,13.45,12.41,47.59359,-54.27349
2023-02-02 22:24:00+00:00,237.0,10.92,234.0,11.85,12.41,47.59359,-54.27349
2023-02-02 22:34:00+00:00,244.0,9.17,240.0,10.05,12.41,47.59359,-54.27349
2023-02-02 22:44:00+00:00,252.0,8.93,260.0,10.02,12.41,47.59359,-54.27349
2023-02-02 22:54:00+00:00,241.0,9.17,243.0,9.85,12.41,47.59359,-54.27349
2023-02-02 23:04:00+00:00,242.0,7.5,248.0,9.89,12.41,47.59359,-54.27349
2023-02-02 23:14:00+00:00,246.0,6.12,245.0,7.87,12.33,47.59359,-54.27349
2023-02-02 23:24:00+00:00,245.0,4.89,258.0,7.24,12.33,47.59359,-54.27349
2023-02-02 23:34:00+00:00,250.0,8.22,250.0,9.65,12.33,47.59359,-54.27349
2023-02-02 23:44:00+00:00,257.0,7.7,253.0,8.38,12.33,47.59359,-54.27349
2023-02-02 23:54:00+00:00,259.0,6.34,252.0,7.79,12.33,47.59359,-54.27349
